カタログに戻る

STARLINK-36417

運用中通信SSO
NORAD 67533·PAYLOAD·🇺🇸 United States

打ち上げ Jan 22, 2026 から Vandenberg Space Force Base

Loading…

次のパス (今後24時間)

TLE

最新Source: CelesTrak SupGP

元期: Sep 15, 2026, 02:51 UTC

1 67533C 26014B   26258.11923611  .00080903  00000+0  25106-2 0  2587
2 67533  97.2844 143.5059 0002129  97.8421 138.2427 15.33406487    11

AllMySatでSTARLINK-36417をリアルタイム追跡

Download on the App Store